Regional Weather Roundup
Issued by NWS Green Bay, WI

Home | Current Version | Previous Version | Text Only | Print | Product List | Glossary On
Versions: 1 2 3 4 5 6 7 8 9 10 11 12 13 14 15 16 17 18 19 20 21 22 23 24 25 26 27 28 29 30 31 32 33 34 35 36 37 38 39 40 41 42 43 44 45 46 47 48 49 50
731
ASUS43 KGRB 301001
RWRGRB

NORTH-CENTRAL AND NORTHEAST WISCONSIN REGIONAL WEATHER ROUNDUP
NATIONAL WEATHER SERVICE GREEN BAY WI
500 AM CDT TUE MAY 30 2017

WIZ005-009-010>012-018-019-301100-
NORTH CENTRAL WISCONSIN

CITY           SKY/WX    TMP DP  RH WIND       PRES   REMARKS
IRONWOOD       LGT RAIN  49  47  93 W7        29.74S
MANITOWISH WTR NOT AVBL
ARBOR VITAE    NOT AVBL
EAGLE RIVER    NOT AVBL
LAND O LAKES   CLOUDY    49  47  93 W3        29.76S
RHINELANDER    CLOUDY    50  48  93 W8        29.77F
PHILLIPS       CLOUDY    47  47  99 SW6       29.77S
ANTIGO         NOT AVBL
TOMAHAWK       NOT AVBL
MERRILL        CLOUDY    48  47  96 SW5       29.80S
$$

WIZ013-073-301100-
NORTHEAST WISCONSIN

CITY           SKY/WX    TMP DP  RH WIND       PRES   REMARKS
IRON MOUNTAIN  CLOUDY    50  45  83 VRB3      29.74R
MARINETTE      NOT AVBL
$$

WIZ017-030-035>037-045-301100-
CENTRAL WISCONSIN

CITY           SKY/WX    TMP DP  RH WIND       PRES   REMARKS
MEDFORD        NOT AVBL
WAUSAU         CLOUDY    49  46  90 SW10      29.80S
MOSINEE        NOT AVBL
MARSHFIELD     MOCLDY    46  44  93 SW6       29.82S
WISC RAPIDS    CLOUDY    50  47  89 W6        29.86R
STEVENS POINT  NOT AVBL
WAUPACA        MOCLDY    52  48  88 SW6       29.84R
SHAWANO        CLEAR     51  49  92 SW3       29.82R
CLINTONVILLE   CLEAR     50  46  87 SW6       29.82S
WAUTOMA        CLOUDY    49  48  97 SW3       29.86S
$$

WIZ038-039-048-051-301100-
FOX VALLEY

CITY           SKY/WX    TMP DP  RH WIND       PRES   REMARKS
NWS GREEN BAY  CLEAR     51  50  96 SW5       29.82R
APPLETON       NOT AVBL
OSHKOSH        CLEAR     51  46  83 W5        29.84R
FOND DU LAC    CLEAR     50  45  83 SW6       29.86R
$$

WIZ022-050-052-301100-
EAST CENTRAL WISCONSIN

CITY           SKY/WX    TMP DP  RH WIND       PRES   REMARKS
EPHRAIM        NOT AVBL
WASHINGTON ISL NOT AVBL
STURGEON BAY   MOCLDY    53  50  89 W9        29.81R
MANITOWOC      NOT AVBL
SHEBOYGAN      MOCLDY    51  50  96 W8        29.85R
$$

LMZ563-521-522-541>543-301100-
LAKESHORE

STATION/POSITION TIME  TEMP    WIND        PRES    VSBY  WAVE
                       AIR SEA DIR/SP/G                  HT/PER
                 (UTC) (F)     (DEG/KT/KT) (MB)    (MI)  (FT/S)
SHEBOYGAN LKSHOR 0900   54     250/ 11/ 12 1010.0R
KEWAUNEE LKSHORE 0930   54     270/  8/ 12 1008.8F
NORTHPORT PIER   0940   54     240/  3/  9 1008.1S
CHAMBERS ISLAND  0940   52     200/  4/  8 1008.1S
MENOMINEE LKSHOR 0930          230/  9/ 12 1007.8R
$$




USA.gov is the U.S. government's official web portal to all federal, state and local government web resources and services.